WA6MHA-11 Weather Reports


time (UTC)temp
C
wind
direction
speed
KPH
gust
KPH
rain 1hr
cm
rain 24hr
cm
rain mn
cm
humidity
%
barometer
mb
20260509111413 14 135 1.6 3.2 0.00 0.00 0.00 57 1014.5
20260509105808 14 99 6.4 6.4 0.00 0.00 0.00 57 1014.6
20260509105406 14 135 3.2 3.2 0.00 0.00 0.00 57 1014.6
20260509103804 14 180 1.6 4.8 0.00 0.00 0.00 57 1014.6
20260509103401 14 155 0.0 4.8 0.00 0.00 0.00 57 1014.5
20260509102159 14 137 6.4 11.3 0.00 0.00 0.00 57 1014.6
20260509101354 14 180 0.0 9.7 0.00 0.00 0.00 57 1014.7
20260509100954 14 195 4.8 12.9 0.00 0.00 0.00 57 1014.7
20260509094946 14 135 6.4 8.0 0.00 0.00 0.00 57 1014.8
20260509094143 14 135 4.8 4.8 0.00 0.00 0.00 57 1014.8
20260509093743 14 139 4.8 6.4 0.00 0.00 0.00 57 1014.8
20260509093341 14 135 6.4 8.0 0.00 0.00 0.00 57 1014.8
20260509092940 14 135 4.8 4.8 0.00 0.00 0.00 57 1014.9
20260509091738 14 132 3.2 4.8 0.00 0.00 0.00 58 1014.8
20260509091736 14 132 3.2 4.8 0.00 0.00 0.00 58 1014.8
20260509091334 14 123 3.2 6.4 0.00 0.00 0.00 58 1015.0
20260509090934 14 94 4.8 8.0 0.00 0.00 0.00 58 1014.8
20260509090532 14 85 3.2 4.8 0.00 0.00 0.00 58 1015.0
20260509090131 14 135 4.8 8.0 0.00 0.00 0.00 58 1015.0
20260509085730 14 135 3.2 6.4 0.00 0.00 0.00 58 1014.9
20260509085328 13 99 1.6 4.8 0.00 0.00 0.00 58 1015.0
20260509084124 13 83 1.6 1.6 0.00 0.00 0.00 58 1015.1
20260509083724 13 135 1.6 1.6 0.00 0.00 0.00 58 1015.0
20260509082119 13 135 1.6 3.2 0.00 0.00 0.00 57 1015.4
20260509081720 13 135 0.0 6.4 0.00 0.00 0.00 57 1015.2
20260509081321 13 135 1.6 3.2 0.00 0.00 0.00 57 1015.2
20260509080917 13 200 1.6 1.6 0.00 0.00 0.00 57 1015.3
20260509080513 13 180 0.0 0.0 0.00 0.00 0.00 57 1015.3
20260509080113 13 135 0.0 1.6 0.00 0.00 0.00 57 1015.3
20260509075710 13 81 0.0 1.6 0.00 0.00 0.00 57 1015.3
20260509074507 13 135 3.2 3.2 0.00 0.00 0.00 57 1015.4
20260509074105 13 135 3.2 4.8 0.00 0.00 0.00 57 1015.3
20260509073703 13 135 3.2 3.2 0.00 0.00 0.00 56 1015.4
20260509073302 13 135 3.2 3.2 0.00 0.00 0.00 56 1015.4
20260509072901 13 135 0.0 1.6 0.00 0.00 0.00 56 1015.4
20260509072502 13 135 1.6 3.2 0.00 0.00 0.00 56 1015.4
20260509072059 13 135 1.6 1.6 0.00 0.00 0.00 56 1015.4
20260509071658 13 135 0.0 0.0 0.00 0.00 0.00 56 1015.5
20260509070855 13 42 0.0 1.6 0.00 0.00 0.00 56 1015.5
20260509070053 13 135 1.6 1.6 0.00 0.00 0.00 56 1015.5
20260509065249 13 135 1.6 1.6 0.00 0.00 0.00 56 1015.6
20260509064848 13 85 0.0 1.6 0.00 0.00 0.00 56 1015.6
20260509064447 13 230 0.0 0.0 0.00 0.00 0.00 55 1015.6
20260509064047 13 335 0.0 0.0 0.00 0.00 0.00 55 1015.6
20260509063244 13 342 0.0 0.0 0.00 0.00 0.00 55 1015.7
20260509062442 14 326 0.0 0.0 0.00 0.00 0.00 55 1015.6
20260509060836 14 45 0.0 0.0 0.00 0.00 0.00 54 1015.6
20260509055639 14 45 0.0 0.0 0.00 0.00 0.00 54 1015.6
20260509055236 14 135 0.0 1.6 0.00 0.00 0.00 54 1015.7
20260509054428 14 76 0.0 0.0 0.00 0.00 0.00 54 1015.7
20260509054027 14 42 0.0 0.0 0.00 0.00 0.00 54 1015.8
20260509053226 14 42 0.0 0.0 0.00 0.00 0.00 53 1015.8
20260509052823 14 45 0.0 1.6 0.00 0.00 0.00 53 1015.8
20260509052422 14 135 1.6 1.6 0.00 0.00 0.00 53 1015.8
20260509052020 14 135 1.6 3.2 0.00 0.00 0.00 53 1015.8
20260509051618 15 135 1.6 3.2 0.00 0.00 0.00 53 1015.7
20260509050415 15 135 3.2 3.2 0.00 0.00 0.00 53 1015.7
20260509045618 15 135 1.6 3.2 0.00 0.00 0.00 52 1015.8
20260509044410 15 135 1.6 3.2 0.00 0.00 0.00 52 1015.7
20260509044013 15 135 3.2 3.2 0.00 0.00 0.00 51 1015.6
20260509043608 15 135 3.2 3.2 0.00 0.00 0.00 51 1015.6
20260509042003 15 135 3.2 6.4 0.00 0.00 0.00 51 1015.5
20260509040805 15 135 8.0 8.0 0.00 0.00 0.00 50 1015.4
20260509035553 15 121 6.4 8.0 0.00 0.00 0.00 49 1015.3
20260509034751 16 130 6.4 6.4 0.00 0.00 0.00 48 1015.3
20260509033145 16 135 6.4 8.0 0.00 0.00 0.00 47 1015.1
20260509032744 16 135 4.8 6.4 0.00 0.00 0.00 46 1015.0
20260509031541 17 126 6.4 8.0 0.00 0.00 0.00 45 1014.8
20260509031139 17 135 4.8 6.4 0.00 0.00 0.00 45 1014.8
20260509030337 17 135 6.4 11.3 0.00 0.00 0.00 44 1014.7
20260509025535 17 110 8.0 16.1 0.00 0.00 0.00 43 1014.6
20260509024731 17 132 9.7 12.9 0.00 0.00 0.00 41 1014.6
20260509023528 18 112 9.7 14.5 0.00 0.00 0.00 40 1014.4
20260509022725 18 135 11.3 16.1 0.00 0.00 0.00 39 1014.4
20260509021922 18 137 9.7 19.3 0.00 0.00 0.00 38 1014.3
20260509015917 20 132 8.0 16.1 0.00 0.00 0.00 36 1014.2
20260509015515 20 128 11.3 12.9 0.00 0.00 0.00 35 1014.1
20260509015114 20 132 11.3 14.5 0.00 0.00 0.00 35 1014.1
20260509014712 20 128 11.3 22.5 0.00 0.00 0.00 34 1014.1
20260509014331 20 128 11.3 16.1 0.00 0.00 0.00 34 1014.1
20260509013913 21 135 14.5 14.5 0.00 0.00 0.00 33 1013.9
20260509012706 22 135 14.5 17.7 0.00 0.00 0.00 33 1014.0
20260509012307 23 135 12.9 12.9 0.00 0.00 0.00 32 1014.0
20260509011903 23 135 12.9 14.5 0.00 0.00 0.00 32 1013.9
20260509011501 24 139 8.0 14.5 0.00 0.00 0.00 32 1013.9
20260509011101 24 148 11.3 14.5 0.00 0.00 0.00 32 1014.0
20260509010258 25 139 12.9 14.5 0.00 0.00 0.00 31 1013.9
20260509005501 26 177 8.0 9.7 0.00 0.00 0.00 31 1013.9
20260509003853 -17 145 3.2 9.7 0.00 0.00 0.00 30 1013.9
20260509003048 27 188 9.7 9.7 0.00 0.00 0.00 30 1013.8
20260509002646 27 154 6.4 12.9 0.00 0.00 0.00 30 1013.8
20260509002245 26 160 9.7 14.5 0.00 0.00 0.00 30 1013.8
20260509001443 26 139 16.1 16.1 0.00 0.00 0.00 30 1013.8
20260509001041 26 193 9.7 12.9 0.00 0.00 0.00 30 1013.9
20260509000640 26 193 9.7 14.5 0.00 0.00 0.00 30 1013.9
20260508235840 26 171 4.8 14.5 0.00 0.00 0.00 30 1013.9
20260508235041 26 139 14.5 19.3 0.00 0.00 0.00 29 1013.9
20260508234635 25 130 11.3 17.7 0.00 0.00 0.00 29 1014.0
20260508233430 26 155 17.7 19.3 0.00 0.00 0.00 29 1014.0
20260508233028 26 144 12.9 24.1 0.00 0.00 0.00 29 1014.0
20260508232627 26 135 16.1 20.9 0.00 0.00 0.00 29 1014.0
20260508231825 26 139 8.0 16.1 0.00 0.00 0.00 28 1014.1
20260508231424 27 121 14.5 14.5 0.00 0.00 0.00 28 1014.2
20260508231022 27 114 11.3 17.7 0.00 0.00 0.00 28 1014.2
20260508230219 27 119 11.3 17.7 0.00 0.00 0.00 28 1014.3
20260508225818 27 135 12.9 14.5 0.00 0.00 0.00 28 1014.3
20260508225417 27 175 8.0 17.7 0.00 0.00 0.00 28 1014.4
20260508224215 27 117 14.5 14.5 0.00 0.00 0.00 28 1014.5
20260508223411 28 148 11.3 16.1 0.00 0.00 0.00 28 1014.6
20260508221805 27 135 6.4 17.7 0.00 0.00 0.00 28 1014.8
20260508220604 -17 135 17.7 17.7 0.00 0.00 0.00 28 1015.0
20260508220602 28 135 17.7 17.7 0.00 0.00 0.00 28 1015.0
20260508220200 29 130 9.7 14.5 0.00 0.00 0.00 28 1015.1
20260508215758 30 146 8.0 14.5 0.00 0.00 0.00 28 1015.1
20260508214958 29 145 16.1 25.7 0.00 0.00 0.00 28 1015.2
20260508214556 29 148 6.4 14.5 0.00 0.00 0.00 28 1015.1
20260508214154 28 135 14.5 14.5 0.00 0.00 0.00 28 1015.2
20260508213752 29 155 4.8 14.5 0.00 0.00 0.00 28 1015.1
20260508212147 28 92 3.2 16.1 0.00 0.00 0.00 28 1015.3
20260508211348 29 160 3.2 14.5 0.00 0.00 0.00 28 1015.4
20260508210953 28 117 9.7 16.1 0.00 0.00 0.00 29 1015.4
20260508210548 28 137 9.7 14.5 0.00 0.00 0.00 29 1015.5
20260508210141 29 144 8.0 16.1 0.00 0.00 0.00 29 1015.5
20260508205744 30 126 12.9 20.9 0.00 0.00 0.00 29 1015.6
20260508204141 30 119 1.6 9.7 0.00 0.00 0.00 30 1015.7
20260508203733 30 175 1.6 11.3 0.00 0.00 0.00 30 1015.8
20260508203332 30 103 11.3 11.3 0.00 0.00 0.00 30 1015.8
20260508202931 30 222 6.4 11.3 0.00 0.00 0.00 30 1015.9
20260508202529 29 123 4.8 17.7 0.00 0.00 0.00 31 1015.9
20260508202128 30 195 6.4 12.9 0.00 0.00 0.00 31 1016.1
20260508201727 29 280 4.8 4.8 0.00 0.00 0.00 31 1016.1
20260508201325 28 114 0.0 11.3 0.00 0.00 0.00 31 1016.2
20260508200926 27 153 6.4 16.1 0.00 0.00 0.00 31 1016.1
20260508200121 28 92 6.4 11.3 0.00 0.00 0.00 32 1016.2
20260508194918 27 205 1.6 6.4 0.00 0.00 0.00 32 1016.2
20260508194517 26 63 6.4 11.3 0.00 0.00 0.00 32 1016.2
20260508194115 26 45 4.8 12.9 0.00 0.00 0.00 32 1016.4
20260508193714 26 63 9.7 14.5 0.00 0.00 0.00 32 1016.4
20260508193312 26 83 8.0 11.3 0.00 0.00 0.00 32 1016.5
20260508192513 27 135 14.5 14.5 0.00 0.00 0.00 33 1016.6
20260508191707 26 77 4.8 9.7 0.00 0.00 0.00 33 1016.7
20260508190905 27 126 6.4 9.7 0.00 0.00 0.00 34 1016.8
20260508185306 26 229 1.6 4.8 0.00 0.00 0.00 35 1017.0
20260508184858 25 97 0.0 3.2 0.00 0.00 0.00 35 1017.0
20260508182852 23 36 9.7 9.7 0.00 0.00 0.00 36 1017.1
20260508182451 24 51 6.4 11.3 0.00 0.00 0.00 36 1017.0
20260508182049 23 327 1.6 11.3 0.00 0.00 0.00 37 1017.2
20260508181247 23 78 6.4 12.9 0.00 0.00 0.00 38 1017.3
20260508180846 23 139 3.2 14.5 0.00 0.00 0.00 38 1017.3
20260508180444 22 92 12.9 12.9 0.00 0.00 0.00 39 1017.3
20260508174839 22 335 0.0 11.3 0.00 0.00 0.00 41 1017.4
20260508174038 22 20 1.6 1.6 0.00 0.00 0.00 42 1017.5
20260508173635 22 132 1.6 4.8 0.00 0.00 0.00 43 1017.5
20260508172832 22 38 0.0 4.8 0.00 0.00 0.00 44 1017.6
20260508172431 21 117 1.6 3.2 0.00 0.00 0.00 44 1017.6
20260508171629 21 42 1.6 4.8 0.00 0.00 0.00 46 1017.7
20260508171227 21 170 0.0 4.8 0.00 0.00 0.00 46 1017.7
20260508170826 20 265 0.0 1.6 0.00 0.00 0.00 47 1017.8
20260508170425 20 208 0.0 6.4 0.00 0.00 0.00 48 1017.7
20260508170024 20 297 3.2 8.0 0.00 0.00 0.00 47 1017.6
20260508165623 20 36 1.6 4.8 0.00 0.00 0.00 48 1017.7
20260508165225 19 306 1.6 4.8 0.00 0.00 0.00 48 1017.7
20260508164822 19 279 4.8 4.8 0.00 0.00 0.00 49 1017.7
20260508164419 19 227 3.2 4.8 0.00 0.00 0.00 49 1017.6
20260508163616 18 172 0.0 4.8 0.00 0.00 0.00 49 1017.6
20260508162012 17 180 0.0 3.2 0.00 0.00 0.00 51 1017.5
20260508161611 17 36 1.6 3.2 0.00 0.00 0.00 51 1017.5
20260508161208 17 225 0.0 3.2 0.00 0.00 0.00 51 1017.5
20260508155603 17 288 3.2 3.2 0.00 0.00 0.00 52 1017.5
20260508155202 17 283 1.6 3.2 0.00 0.00 0.00 52 1017.6
20260508154801 17 292 0.0 3.2 0.00 0.00 0.00 53 1017.5
20260508154359 16 202 1.6 3.2 0.00 0.00 0.00 53 1017.5
20260508153958 16 3 0.0 1.6 0.00 0.00 0.00 53 1017.6
20260508153157 16 56 0.0 1.6 0.00 0.00 0.00 53 1017.6
20260508152355 16 204 0.0 3.2 0.00 0.00 0.00 54 1017.6
20260508151149 15 146 1.6 4.8 0.00 0.00 0.00 56 1017.7
20260508150747 15 135 4.8 6.4 0.00 0.00 0.00 56 1017.7
20260508145945 15 135 1.6 3.2 0.00 0.00 0.00 56 1017.7
20260508145544 15 142 1.6 3.2 0.00 0.00 0.00 56 1017.5
20260508145143 15 342 0.0 3.2 0.00 0.00 0.00 56 1017.7
20260508144343 15 135 0.0 3.2 0.00 0.00 0.00 56 1017.7
20260508143542 15 130 0.0 1.6 0.00 0.00 0.00 56 1017.8
20260508143136 15 180 0.0 1.6 0.00 0.00 0.00 56 1017.7
20260508142735 14 235 1.6 1.6 0.00 0.00 0.00 57 1017.7
20260508142333 14 78 0.0 3.2 0.00 0.00 0.00 56 1017.8
20260508141531 14 101 1.6 3.2 0.00 0.00 0.00 56 1017.7
20260508141247 14 180 0.0 4.8 0.00 0.00 0.00 56 1017.8
20260508141130 14 180 0.0 4.8 0.00 0.00 0.00 56 1017.8
20260508140729 14 182 1.6 3.2 0.00 0.00 0.00 56 1017.6
20260508140329 14 182 0.0 1.6 0.00 0.00 0.00 55 1017.6
20260508135925 14 135 0.0 3.2 0.00 0.00 0.00 56 1017.6
20260508135524 14 184 1.6 6.4 0.00 0.00 0.00 55 1017.4
20260508135123 14 312 0.0 4.8 0.00 0.00 0.00 56 1017.5
20260508134722 14 166 1.6 1.6 0.00 0.00 0.00 55 1017.4
20260508134321 14 135 1.6 1.6 0.00 0.00 0.00 55 1017.4
20260508133518 14 135 6.4 6.4 0.00 0.00 0.00 56 1017.3
20260508133117 14 135 0.0 4.8 0.00 0.00 0.00 56 1017.3
20260508132316 14 182 0.0 1.6 0.00 0.00 0.00 56 1017.3
20260508131914 14 191 1.6 4.8 0.00 0.00 0.00 56 1017.4
20260508131516 14 135 1.6 3.2 0.00 0.00 0.00 56 1017.2
20260508125912 14 139 3.2 4.8 0.00 0.00 0.00 56 1017.1
20260508124705 14 83 0.0 6.4 0.00 0.00 0.00 56 1017.1
20260508123900 14 135 1.6 8.0 0.00 0.00 0.00 56 1017.0
20260508123459 13 135 1.6 4.8 0.00 0.00 0.00 56 1016.9
20260508123058 13 121 1.6 1.6 0.00 0.00 0.00 56 1016.9
20260508122657 13 184 1.6 3.2 0.00 0.00 0.00 56 1016.9
20260508122255 13 148 0.0 6.4 0.00 0.00 0.00 56 1017.0
20260508121853 13 182 0.0 1.6 0.00 0.00 0.00 56 1016.8
20260508121452 13 85 0.0 1.6 0.00 0.00 0.00 56 1016.8
20260508121051 13 180 0.0 3.2 0.00 0.00 0.00 56 1016.9
20260508120650 13 135 0.0 6.4 0.00 0.00 0.00 56 1016.8
20260508120249 13 135 3.2 4.8 0.00 0.00 0.00 56 1016.8
20260508115848 13 83 1.6 3.2 0.00 0.00 0.00 56 1016.7
20260508115446 13 78 0.0 1.6 0.00 0.00 0.00 56 1016.8
20260508114644 13 121 4.8 8.0 0.00 0.00 0.00 56 1016.8
20260508114242 13 121 4.8 4.8 0.00 0.00 0.00 57 1016.7
20260508113843 13 123 3.2 4.8 0.00 0.00 0.00 57 1016.7
20260508111836 12 123 6.4 6.4 0.00 0.00 0.00 57 1016.6